FREGAT DEB (TANK), 43089

Orbit data source: Space-Track

FREGAT DEB (TANK), 43089 is space debris in LEO originally from a launch on Tue, 26 Dec 2017 UTC launched from the Tyuratam Missile And Space Complex (TTMTR). Debris objects in space refer to the collection of defunct objects orbiting the Earth. Examples of debris include non-operational satellites, rocket bodies, and fragments generated from explosions, collisions, or faulty payload assembly.

Loading next visibility...
FREGAT DEB (TANK) details
Identifier
43089, 2017-086C
Orbit
LEO
Last TLE update8 hours ago
Origin
Flag of CISLavochkin (CIS)
ManufacturerLavochkin
MissionSpacecraft
Bus & MotorFREGAT SBB, Unknown motor
Mass360 kg wet, 360 kg dry
Launch date (UTC)
Icon of a cake. It is the launch day of the satellite!2017-12-26 (7 years ago)
Launch vehicleUnknown
Launch site
Tyuratam Missile And Space Complex (TTMTR)
Object type
Payload
Rocket body
Debris
Shape & HBRTorus, 3.9 m
Radar Cross Section6.703 m², Large (>1 m²)

Expand to show TLE details & history

TLE from 8 hours ago
0 FREGAT DEB (TANK)
1 43089U 17086C   24361.21411302  .00038440  46076-5  81089-3 0  9992
2 43089  50.3771 286.3883 1568504 218.6605 129.1104 12.40635451292107
Epoch: 2024-12-26T05:08Z
Definitive object data (Epoch: 2024-12-26T05:08:19.364Z)
Latitude-0.00001°
Longitude114.11089°
Altitude2,384.864 km
Speed6.359 km/s
True Right ascension19h 05m 33s
True Declination0° 00' 00"
Sunlit
Object was in daylight at TLE epoch
Visualization TLE readout
Latitude48.43615°
Longitude-178.59627°
Altitude2,427.681 km
Speed6.33 km/s
Apparent Right ascension00h 07m 15s
Apparent Declination13° 13' 13"
Sunlit
Object is in daylight
Visualization observer readout
Local Sidereal Time12:46:09
Azimuth11.744° NNE
Elevation-36.099°
Doppler factor1
Orbital elements
Apogee altitude2,740.957 km
Perigee altitude268.151 km
Semi-major axis7,882.691 km
Eccentricity0.1568504
Inclination50.3771°
RAAN286.3883°
Arg. of periapsis218.6605°
True anomaly141.42258°
Mean anomaly129.1104°
Eccentric anomaly135.41849°
Mean motion3.10121 °/min
BSTAR0.00081089
Orbital period116.08 mins
Loading maneuver chart data...
Loading historical data...
Loading historical data...
Loading historical data...
Loading historical data...
Loading historical data...
Loading historical data...
Loading historical data...

FREGAT DEB (TANK) Visibility forecast

Observer location: undefined°, undefined

Span
Click to sort rows by Start time (UTC) header in descending order
Start Az.
Max El. time (UTC)
Max El. Az.
Max El.
End time (UTC)
End Az.
15 mins2024-12-26 18:46:28.972Z139.03° SSE2024-12-26 18:53:28.972Z111.244° ESE15.826°2024-12-26 19:01:28.972Z81.062° E
27 mins2024-12-26 20:41:28.972Z196.388° SSW2024-12-26 20:54:28.972Z129.616° SE38.796°2024-12-26 21:08:28.972Z59.864° ENE
28 mins2024-12-26 22:43:28.972Z241.312° WSW2024-12-26 22:58:28.972Z337.206° NNW44.519°2024-12-26 23:11:28.972Z56.28° ENE
25 mins2024-12-27 00:49:28.972Z277.407° WNW2024-12-27 01:03:28.972Z349.007° N39.111°2024-12-27 01:14:28.972Z66.865° ENE
20 mins2024-12-27 02:56:28.972Z300.15° NW2024-12-27 03:08:28.972Z9.705° NNE40.482°2024-12-27 03:16:28.972Z93.482° ESE
16 mins2024-12-27 05:01:28.972Z302.451° NW2024-12-27 05:11:28.972Z230.951° WSW42.406°2024-12-27 05:17:28.972Z145.537° SSE
|